Погода в Омдурмане

Судан     15°39′40″N   32°25′22″E
темп.,
°C
ветер,
м/с
пор.,
м/с
влажн.,
%
обл.,
%
осадки,
мм/ч
давл.,
гПа
погр.,
м
27 сентября, пн
пн2723:00+32юз32415 0.0 1010487
02:00+31зюз33460 0.0 1009186
05:00+30зсз46480 0.0 1010282
08:00+32з45420 0.0 1011591
11:00+35з22225 0.0 10101501
14:00+37с231556 0.0 10072017
17:00+38всв3414100 0.0 10062343
20:00+37юв442129 0.0 1008251
28 сентября, вт
вт2823:00+35юз332366 0.0 1008200
02:00+34юз342748 0.0 1006116
05:00+33св4627100 0.0 1007235
08:00+34св6718100 0.0 1009488
11:00+34св5618100 0.0 1009830
14:00+38ссв451672 0.0 10061413
17:00+39с45155 0.0 10052395
20:00+37ссз441793 0.0 1006201
29 сентября, ср
ср2923:00+34ссз591925 0.0 1007264
02:00+33с8131857 0.0 1006528
05:00+31с591861 0.0 1008346
08:00+32с7111486 0.0 1010604
11:00+37ссв79128 0.0 10081223
14:00+39ссв67115 0.0 10052183
17:00+39с671145 0.0 10042673
20:00+36ссз7111395 0.0 1006476
30 сентября, чт
чт3023:00+34с713155 0.0 1007441
02:00+31с8141555 0.0 1006409
05:00+29с713155 0.0 1007368
08:00+31св681474 0.0 1010662
11:00+35ссв441168 0.0 10091259
14:00+37с4410100 0.0 10061679
17:00+37ссз441043 0.0 10051862
20:00+35сз57139 0.0 1007404
1 октября, пт
пт123:00+33ссз69155 0.0 1007317
02:00+31ссз691633 0.0 1007243
05:00+29ссз610166 0.0 1007223
08:00+31с45145 0.0 1009336
11:00+35ссв331162 0.0 10081243
14:00+37с2210100 0.0 10051822
17:00+37ссз2210100 0.0 10051916
20:00+36ссз3412100 0.0 1006442